Wind_Speed
13 13 14 14 15 15 10 8 7 7 7 6 6 5 5 4 4 4 4 4 5 4 4 4 5 5 5 5 5 5 6 7 6 6 6 7 7 7 7 7 7 7 7 8 8 7 7 7 7
13 13 13 14 15 12 9 9 8 8 8 7 7 6 6 5 5 4 4 4 5 4 5 5 5 5 5 5 4 4 5 7 6 6 6 6 7 7 6 6 7 7 8 8 8 7 7 6 6
13 13 14 14 13 9 9 10 9 8 8 8 7 6 6 6 6 5 4 5 5 5 5 5 5 4 5 4 4 4 4 5 5 5 6 6 6 6 6 6 7 7 7 7 7 7 7 6 5
13 14 16 15 11 10 10 10 9 8 8 8 7 7 7 7 6 6 5 5 5 6 5 5 5 5 4 4 4 4 4 5 5 4 5 5 5 5 6 6 6 6 6 6 7 7 6 5 5
13 16 17 14 10 11 10 10 9 8 7 7 7 7 8 7 7 6 6 6 6 6 6 5 5 5 5 4 4 4 4 4 4 4 5 5 5 5 6 6 6 6 6 6 6 6 5 5 4
14 17 15 12 11 11 11 10 9 8 7 7 7 7 8 7 7 7 7 6 6 6 6 6 5 5 5 4 4 3 3 4 4 4 4 4 5 4 5 5 6 6 6 6 5 5 5 4 3
14 17 13 11 11 11 11 10 8 7 7 6 7 7 8 8 8 8 8 7 7 6 6 6 5 5 5 5 4 4 4 4 4 4 4 4 4 4 4 5 5 5 5 5 5 5 4 4 4
13 16 13 10 9 11 10 10 9 9 8 6 7 8 8 8 8 8 8 8 8 7 6 6 5 5 5 5 4 4 3 3 3 3 3 3 3 3 3 4 4 4 4 4 4 4 4 4 3
13 13 10 9 9 9 10 10 10 9 8 7 7 7 7 8 8 8 9 9 9 8 7 6 6 5 5 4 4 3 3 2 2 2 3 3 4 3 3 3 4 4 4 4 4 3 4 4 3
10 9 8 9 9 9 10 10 10 9 9 8 8 8 7 7 8 9 9 9 9 8 7 7 6 6 6 5 4 4 3 3 3 3 3 4 4 3 3 4 4 4 4 4 4 4 3 3 3
8 9 9 9 8 9 10 10 9 9 9 9 9 9 8 7 8 9 9 9 9 9 7 7 7 7 7 6 5 4 4 4 4 4 4 4 3 4 4 4 4 4 4 5 4 3 3 3 2
6 7 8 8 8 9 9 10 9 9 10 10 9 9 8 8 8 10 10 10 9 9 9 8 7 7 8 7 6 5 5 5 5 5 4 4 4 4 4 4 4 4 4 4 3 2 2 2 1
4 6 8 8 9 9 9 10 10 10 9 9 8 8 8 9 9 9 9 9 9 9 9 8 7 7 7 7 6 5 4 4 4 4 4 4 4 4 3 3 3 3 4 3 2 2 1 1 0
3 5 7 8 9 8 8 9 10 11 10 9 8 8 9 9 9 9 9 9 9 9 9 8 8 7 7 6 5 5 4 4 4 3 3 3 3 3 3 2 3 3 2 2 2 1 1 0 0
3 5 7 8 8 8 7 8 10 10 8 8 7 7 8 8 9 9 9 9 9 9 9 9 8 7 6 6 5 4 3 3 3 3 3 3 2 2 2 2 2 2 2 2 2 1 1 1 1
2 4 6 8 8 8 8 8 8 9 9 8 7 7 7 8 8 9 8 8 9 9 9 9 9 8 7 7 5 4 3 2 2 2 2 2 2 2 1 2 2 2 2 2 2 2 2 2 2
2 3 4 7 8 7 8 8 7 8 9 8 7 7 7 7 8 9 8 8 8 9 9 9 9 8 7 7 6 5 4 3 2 2 2 2 2 2 2 3 3 2 2 1 2 2 2 3 2
2 2 4 7 9 8 8 10 9 8 10 10 8 7 7 8 8 8 8 8 8 8 9 9 8 8 8 6 6 5 5 4 3 3 3 4 4 4 3 4 4 3 3 2 2 2 3 3 3
6 5 7 8 10 9 9 10 10 10 11 11 9 8 8 8 9 9 8 9 9 8 9 9 8 7 7 7 6 5 5 5 4 4 4 5 5 5 5 5 4 4 4 4 4 4 3 3 3
8 7 9 9 10 10 10 10 10 10 12 12 11 10 9 10 10 10 9 10 10 9 9 9 8 7 7 7 7 7 6 5 5 5 5 6 6 6 6 5 5 5 5 5 6 6 5 4 5
8 9 11 10 11 10 10 11 11 11 12 12 11 10 11 10 11 10 10 9 10 10 9 9 9 8 8 8 8 7 7 6 6 7 6 7 7 7 7 6 6 6 6 7 7 7 7 6 6
10 11 11 11 10 10 10 12 13 13 12 12 11 10 10 10 12 11 11 10 9 9 9 9 10 8 8 8 8 8 7 7 8 8 8 8 8 8 7 6 7 7 8 7 7 7 7 7 8
12 12 11 11 11 10 8 12 15 14 12 12 12 12 11 10 12 12 12 11 10 9 9 9 10 9 8 9 8 9 9 9 9 9 9 9 8 8 7 7 8 8 8 8 8 8 9 9 9
13 11 10 10 11 11 9 11 14 14 14 13 14 15 12 13 13 13 13 12 10 10 10 9 9 10 9 9 9 10 10 10 10 10 10 10 10 9 8 8 8 8 9 10 9 10 10 11 11
12 11 11 12 12 12 11 11 14 14 15 16 15 15 14 14 14 13 13 12 10 11 11 11 10 11 11 11 11 11 11 12 12 12 11 10 10 10 10 10 10 10 11 11 10 11 12 12 12
13 13 13 13 13 13 13 11 13 16 17 17 15 15 15 15 14 14 14 13 13 13 13 12 12 12 12 12 12 12 12 13 13 12 11 11 11 11 11 11 12 12 12 12 12 12 12 13 13
15 14 13 14 14 15 13 13 15 15 16 16 16 17 17 16 16 16 15 14 14 13 13 13 13 12 12 12 13 13 13 13 14 14 13 13 12 12 12 13 14 13 13 13 12 13 13 13 13
15 14 14 14 15 15 14 15 18 18 19 18 18 17 18 18 17 17 17 17 17 15 13 14 14 14 13 13 14 14 14 15 15 15 15 14 14 14 14 15 15 15 14 14 13 13 14 14 14
16 16 15 16 17 17 16 16 19 21 21 21 17 17 19 19 19 19 18 18 17 17 17 16 14 14 14 14 15 15 15 16 16 16 16 16 16 16 16 16 16 16 16 15 15 15 15 14 15
18 18 18 19 19 19 19 19 18 21 21 19 20 19 19 19 20 20 20 19 18 17 17 17 16 16 15 15 16 16 16 17 17 17 17 17 17 17 17 17 17 17 17 17 16 16 16 16 16
Wind_Direction
76 74 73 68 57 53 51 44 40 42 42 51 58 60 64 61 63 68 66 73 74 72 81 83 90 91 103 117 130 140 142 141 134 130 125 117 118 128 127 122 124 125 126 127 124 122 125 115 110
77 75 71 67 57 48 40 38 40 39 44 47 54 62 63 63 68 68 71 70 72 78 83 86 90 89 95 111 125 133 141 141 131 124 120 120 121 127 125 118 121 126 128 128 125 125 129 125 117
79 74 67 61 53 44 39 37 37 38 42 41 48 57 58 59 62 65 74 69 72 79 79 82 83 81 89 101 114 127 124 127 124 118 117 117 119 120 124 124 124 126 125 127 123 127 131 129 126
79 71 62 56 46 43 40 36 36 40 41 42 45 47 52 57 60 65 68 70 72 74 73 75 76 76 77 76 82 114 117 113 115 113 118 118 122 121 123 125 128 130 128 126 129 127 128 131 130
81 70 60 51 40 41 39 37 34 38 43 45 48 49 51 52 58 60 61 62 65 69 66 61 69 74 77 75 76 101 121 117 118 114 115 116 122 122 124 121 130 134 133 131 133 130 130 132 127
76 69 60 46 33 35 35 36 33 34 41 44 46 49 48 51 57 60 57 55 55 57 56 60 68 70 68 68 70 91 118 127 123 112 109 117 121 120 124 118 126 129 131 133 135 132 135 135 123
67 74 58 46 33 33 31 33 31 33 36 34 40 43 46 51 54 57 56 52 51 54 54 56 65 65 63 60 65 91 114 118 119 112 113 115 122 123 122 122 120 124 131 134 133 129 127 120 110
67 68 54 40 33 33 27 31 23 28 28 33 46 50 49 51 54 57 58 55 55 55 57 57 56 58 63 62 65 80 100 109 116 116 110 105 117 133 126 120 121 118 126 134 134 127 125 118 108
63 66 59 38 32 33 28 29 27 30 34 41 48 53 53 54 54 59 58 53 52 55 57 56 55 60 58 53 64 71 85 108 112 115 111 101 106 116 124 119 119 119 121 127 129 126 126 119 112
54 58 53 42 35 31 30 30 32 31 35 41 41 44 51 52 51 54 56 52 50 54 54 52 52 56 49 45 57 61 70 77 91 88 99 97 96 107 120 118 114 118 118 118 118 123 126 126 117
40 45 42 35 32 28 29 33 34 34 37 36 36 39 51 49 46 49 50 48 48 50 46 44 42 44 45 47 58 64 72 75 84 88 95 103 106 104 110 114 109 104 105 109 112 118 123 125 121
56 37 37 33 30 29 29 31 30 32 32 36 39 42 45 45 42 42 45 46 47 44 39 37 36 37 44 49 57 61 63 72 78 83 92 99 106 104 103 105 110 95 92 104 113 115 114 129 132
52 41 35 32 31 30 29 27 23 28 25 33 34 38 40 39 37 40 40 40 39 37 33 29 29 33 39 44 47 51 60 70 78 82 84 87 101 112 106 97 93 90 97 98 119 130 115 128 283
58 41 32 25 25 22 23 29 21 21 19 22 26 28 30 32 36 34 34 34 31 29 28 25 25 25 29 34 37 43 58 64 68 65 63 72 92 101 99 90 75 76 81 80 77 76 66 339 319
38 17 19 9 12 5 2 15 16 13 10 13 15 19 21 22 26 27 25 27 25 23 20 17 15 16 16 16 22 29 43 51 49 45 49 58 80 87 92 65 51 43 39 30 21 7 41 18 358
2 3 4 350 349 343 344 354 3 357 353 3 6 9 13 11 14 18 19 16 14 15 14 10 8 10 8 11 11 10 16 24 25 33 33 47 47 43 47 28 13 6 14 12 1 332 318 331 351
11 348 336 324 321 323 328 331 345 342 335 343 352 353 356 0 4 7 9 8 4 3 3 2 2 2 360 2 6 9 8 3 344 341 360 1 2 1 343 341 333 332 323 325 338 346 334 338 359
233 285 287 292 302 307 310 315 322 326 326 328 332 337 336 343 349 352 354 356 357 354 353 352 351 353 354 353 354 347 343 340 333 325 329 334 336 332 322 322 316 314 311 306 321 321 327 335 345
232 247 271 283 294 298 296 302 311 316 314 315 315 321 324 326 333 336 341 343 344 347 346 345 341 340 342 345 339 331 327 326 329 333 328 326 321 313 303 302 301 302 304 305 305 308 312 323 324
236 249 262 273 287 293 298 299 303 308 309 310 310 312 313 313 317 325 328 331 332 334 336 338 334 327 330 335 340 332 323 324 322 321 318 317 314 308 300 293 294 296 301 303 301 305 310 312 310
247 251 259 270 283 295 302 299 297 306 305 304 308 311 306 309 309 313 317 319 323 324 325 331 329 323 324 325 328 329 321 315 314 314 312 313 313 306 302 291 291 288 292 295 297 298 300 303 305
254 254 261 267 275 284 290 292 294 296 298 298 297 298 307 309 305 306 308 310 314 316 318 326 325 320 321 322 321 320 323 314 313 311 306 305 305 301 296 292 293 296 298 295 297 300 296 297 299
251 254 261 267 269 269 278 285 292 295 298 300 299 298 303 303 300 299 300 304 303 308 315 319 321 319 320 319 315 312 316 319 314 310 305 298 297 295 291 287 286 292 296 295 297 300 298 295 297
251 256 259 264 276 280 275 269 279 285 291 294 293 297 299 299 296 293 291 294 296 301 303 305 308 310 313 313 312 312 316 319 316 312 304 296 291 289 288 290 289 290 295 300 300 299 296 295 295
250 258 266 274 279 281 269 265 273 279 287 290 288 290 297 296 293 293 294 293 295 297 295 295 300 302 304 306 307 308 311 313 312 311 308 301 295 292 289 289 290 292 294 296 296 295 295 296 295
246 248 257 270 275 277 274 261 266 272 281 286 288 285 285 289 288 290 293 292 292 293 292 291 293 295 298 301 302 304 307 307 308 309 309 304 301 296 294 292 292 291 291 289 291 290 291 295 297
247 244 252 265 270 270 271 273 274 268 273 280 283 285 284 282 282 285 289 289 289 284 286 289 289 290 292 295 298 301 304 306 305 305 306 304 302 300 298 297 296 294 291 289 289 292 292 293 295
254 251 252 255 265 267 263 267 272 269 274 275 276 279 280 280 281 283 285 286 287 285 284 284 284 286 290 294 295 300 303 303 303 302 304 304 300 297 297 298 297 295 294 295 291 292 294 292 291
255 255 254 254 256 262 267 267 271 273 275 275 279 276 272 273 277 280 282 282 283 285 284 283 283 284 288 292 293 297 300 302 302 298 297 297 296 295 296 296 295 292 291 291 292 290 291 292 292
255 253 253 256 259 260 263 267 272 276 279 279 278 273 273 279 277 279 278 278 281 283 284 283 282 283 284 287 289 292 296 297 297 295 294 294 294 293 293 293 293 291 288 287 289 289 289 290 291
Height
5895 5894 5894 5894 5893 5892 5893 5893 5891 5890 5889 5888 5887 5886 5886 5886 5886 5888 5884 5883 5883 5883 5882 5882 5882 5881 5881 5882 5882 5882 5883 5883 5884 5884 5884 5884 5884 5885 5886 5886 5887 5887 5888 5889 5890 5890 5891 5891 5892
5897 5897 5897 5896 5895 5896 5896 5894 5893 5892 5891 5890 5889 5888 5887 5887 5887 5886 5885 5884 5884 5884 5884 5883 5883 5883 5883 5883 5884 5884 5884 5885 5885 5885 5885 5885 5886 5886 5887 5888 5888 5889 5889 5890 5891 5891 5892 5892 5893
5900 5899 5899 5898 5899 5899 5899 5897 5895 5894 5893 5892 5891 5891 5890 5889 5888 5887 5886 5886 5885 5885 5885 5884 5884 5884 5885 5885 5885 5885 5885 5886 5886 5887 5887 5887 5887 5888 5888 5888 5889 5890 5891 5892 5892 5892 5893 5894 5894
5902 5901 5901 5901 5902 5901 5900 5899 5898 5897 5895 5894 5893 5892 5891 5890 5890 5889 5888 5887 5887 5887 5886 5886 5886 5886 5886 5886 5886 5886 5886 5887 5887 5888 5888 5889 5889 5889 5889 5890 5891 5891 5892 5893 5893 5894 5894 5895 5896
5903 5902 5903 5904 5904 5903 5902 5901 5900 5899 5897 5896 5895 5894 5893 5892 5891 5890 5890 5889 5888 5888 5887 5887 5887 5887 5887 5887 5887 5887 5887 5888 5888 5889 5889 5890 5890 5890 5891 5891 5892 5892 5893 5894 5894 5894 5895 5896 5897
5901 5903 5907 5907 5907 5906 5905 5903 5902 5901 5899 5898 5897 5896 5895 5894 5893 5892 5891 5891 5890 5889 5889 5888 5888 5888 5888 5888 5888 5888 5888 5888 5889 5890 5890 5891 5891 5891 5892 5892 5892 5893 5894 5894 5895 5896 5896 5897 5898
5905 5906 5910 5910 5909 5908 5907 5906 5904 5902 5901 5899 5898 5897 5896 5895 5895 5894 5893 5892 5891 5891 5890 5890 5890 5890 5890 5889 5889 5889 5889 5889 5890 5891 5891 5891 5892 5892 5892 5893 5893 5894 5895 5895 5896 5897 5897 5898 5899
5909 5909 5912 5912 5911 5910 5909 5907 5906 5904 5902 5901 5900 5899 5898 5898 5897 5896 5895 5894 5893 5893 5892 5892 5892 5891 5891 5891 5890 5890 5890 5890 5891 5891 5892 5892 5892 5893 5893 5894 5894 5895 5895 5896 5897 5897 5898 5899 5899
5914 5915 5915 5915 5914 5913 5911 5910 5908 5906 5904 5903 5902 5901 5901 5900 5899 5898 5897 5896 5895 5895 5894 5894 5893 5893 5892 5892 5891 5891 5891 5891 5891 5892 5892 5893 5893 5894 5894 5894 5895 5896 5896 5897 5897 5898 5899 5899 5900
5917 5917 5917 5917 5916 5915 5913 5911 5910 5908 5906 5905 5904 5903 5902 5902 5901 5900 5899 5898 5897 5897 5896 5896 5895 5894 5893 5893 5892 5892 5892 5891 5891 5892 5893 5893 5894 5894 5895 5895 5896 5896 5897 5897 5898 5899 5899 5900 5900
5920 5919 5919 5918 5918 5916 5915 5914 5912 5910 5909 5907 5906 5905 5904 5904 5903 5902 5901 5900 5899 5899 5898 5897 5896 5896 5895 5894 5894 5894 5893 5892 5892 5893 5894 5894 5895 5895 5896 5896 5897 5897 5898 5898 5899 5899 5900 5900 5901
5922 5921 5921 5921 5920 5918 5917 5916 5914 5913 5912 5910 5909 5908 5907 5906 5905 5904 5903 5902 5901 5900 5900 5899 5898 5897 5896 5896 5895 5895 5895 5895 5895 5895 5896 5896 5896 5897 5897 5898 5898 5898 5899 5899 5900 5900 5900 5901 5901
5923 5923 5923 5922 5921 5920 5919 5918 5916 5915 5914 5912 5911 5910 5909 5908 5907 5906 5905 5904 5903 5902 5902 5901 5900 5899 5898 5897 5897 5897 5897 5897 5897 5897 5897 5897 5897 5898 5898 5899 5899 5900 5900 5900 5900 5901 5901 5901 5901
5924 5924 5924 5923 5922 5922 5921 5919 5918 5917 5916 5914 5913 5912 5911 5910 5909 5908 5907 5906 5905 5904 5904 5903 5902 5901 5900 5899 5899 5899 5898 5898 5898 5898 5898 5898 5899 5899 5899 5900 5900 5900 5901 5901 5901 5901 5901 5901 5901
5924 5924 5924 5925 5924 5923 5922 5921 5919 5918 5917 5916 5915 5913 5912 5911 5910 5909 5908 5908 5907 5906 5905 5904 5903 5902 5902 5901 5900 5900 5900 5900 5900 5900 5900 5900 5900 5900 5900 5900 5901 5901 5901 5901 5901 5900 5901 5901 5901
5924 5925 5926 5926 5926 5925 5925 5922 5921 5920 5918 5917 5916 5915 5914 5913 5912 5911 5910 5909 5908 5907 5907 5906 5905 5904 5903 5902 5902 5901 5901 5901 5901 5901 5901 5901 5901 5901 5901 5901 5901 5901 5901 5901 5901 5901 5901 5901 5901
5926 5927 5927 5928 5926 5925 5924 5922 5922 5920 5919 5917 5916 5916 5915 5914 5913 5912 5911 5910 5909 5908 5908 5907 5906 5905 5904 5904 5903 5903 5902 5902 5902 5902 5902 5902 5902 5902 5902 5902 5902 5902 5902 5902 5902 5902 5901 5901 5901
5926 5927 5928 5928 5926 5925 5924 5923 5921 5920 5919 5918 5916 5916 5915 5914 5913 5912 5911 5910 5910 5909 5908 5907 5906 5906 5905 5904 5904 5904 5903 5903 5903 5903 5903 5903 5902 5902 5902 5902 5902 5902 5902 5902 5902 5901 5901 5901 5901
5925 5926 5926 5927 5925 5925 5923 5922 5921 5920 5919 5917 5916 5915 5915 5914 5913 5912 5911 5910 5910 5909 5908 5907 5906 5906 5905 5905 5904 5904 5904 5903 5903 5903 5903 5903 5903 5902 5902 5902 5902 5902 5902 5901 5901 5901 5901 5901 5901
5923 5925 5925 5925 5924 5924 5923 5921 5920 5919 5918 5917 5916 5914 5914 5913 5913 5912 5911 5910 5909 5909 5908 5907 5906 5906 5905 5905 5904 5904 5903 5903 5903 5903 5903 5902 5902 5902 5902 5901 5901 5901 5901 5901 5901 5901 5901 5901 5901
5921 5923 5923 5923 5923 5923 5922 5920 5918 5917 5917 5916 5915 5913 5913 5912 5911 5911 5910 5909 5909 5908 5907 5906 5906 5905 5904 5904 5904 5903 5903 5903 5903 5902 5902 5902 5901 5901 5901 5900 5900 5900 5900 5900 5900 5900 5900 5900 5900
5920 5921 5921 5921 5921 5921 5921 5920 5918 5915 5915 5914 5913 5913 5912 5911 5910 5909 5909 5908 5908 5907 5906 5905 5905 5904 5904 5903 5903 5902 5902 5902 5902 5901 5901 5900 5900 5900 5900 5899 5899 5899 5899 5899 5899 5899 5899 5899 5898
5918 5918 5918 5919 5918 5918 5919 5919 5917 5914 5912 5912 5912 5910 5909 5909 5909 5908 5907 5907 5906 5906 5905 5905 5904 5903 5903 5903 5902 5902 5901 5900 5900 5900 5899 5899 5899 5899 5898 5898 5898 5898 5898 5898 5897 5897 5897 5897 5897
5915 5916 5916 5916 5915 5916 5916 5917 5915 5913 5911 5910 5910 5908 5907 5908 5907 5906 5905 5904 5904 5904 5904 5904 5903 5902 5902 5901 5901 5900 5900 5899 5898 5898 5898 5897 5897 5897 5897 5896 5896 5896 5896 5896 5895 5895 5895 5895 5895
5913 5914 5914 5914 5914 5914 5915 5914 5914 5911 5910 5909 5908 5907 5906 5906 5904 5904 5903 5902 5902 5902 5902 5902 5901 5901 5900 5900 5899 5899 5898 5898 5897 5896 5896 5895 5895 5895 5894 5894 5894 5894 5894 5894 5893 5893 5893 5892 5892
5909 5911 5913 5913 5913 5912 5911 5910 5910 5909 5908 5907 5906 5905 5904 5903 5902 5901 5901 5900 5900 5900 5900 5900 5899 5899 5898 5898 5898 5897 5897 5896 5895 5894 5893 5893 5893 5892 5892 5892 5892 5892 5891 5891 5891 5891 5890 5890 5889
5906 5907 5910 5911 5910 5910 5909 5908 5906 5904 5904 5903 5903 5903 5901 5900 5900 5898 5898 5897 5896 5896 5896 5897 5897 5896 5896 5896 5895 5895 5894 5893 5893 5892 5891 5890 5890 5890 5889 5889 5889 5888 5888 5888 5888 5888 5887 5887 5886
5903 5904 5906 5906 5906 5906 5907 5906 5904 5901 5899 5898 5898 5899 5898 5897 5896 5896 5895 5895 5893 5892 5893 5893 5894 5893 5893 5893 5893 5892 5892 5891 5890 5889 5889 5888 5888 5887 5887 5886 5886 5885 5885 5884 5884 5884 5884 5883 5882
5899 5900 5901 5902 5902 5903 5902 5904 5901 5899 5896 5894 5892 5893 5893 5893 5893 5892 5892 5892 5892 5891 5890 5890 5890 5890 5890 5890 5890 5890 5889 5888 5888 5887 5886 5885 5885 5884 5883 5883 5882 5882 5881 5881 5880 5880 5879 5879 5878
5895 5896 5897 5898 5898 5898 5898 5901 5896 5894 5892 5890 5889 5888 5887 5888 5887 5888 5888 5887 5888 5888 5888 5887 5887 5887 5887 5887 5887 5887 5886 5885 5884 5883 5883 5882 5881 5880 5880 5879 5878 5878 5877 5877 5876 5876 5875 5875 5874